• In Hungary
  • List of Countries
  • For 7 days
  • Water Temperature
  • Satellite Maps
  • Weather Map
  • News
  • Weather Widgets
  • user-avatar
    Login

    Hourly Weather Kollo

    Today, 16 July, Monday

    Time Temperature Precipitation Wind Pressure Humidity
    00:00 +34°C° 0 mm 2 mps 741 mmHg 44%
    01:00 +32°C° 0.1 mm 2 mps 741 mmHg 45%
    02:00 +32°C° 0.1 mm 2 mps 741 mmHg 46%
    03:00 +31°C° 0.1 mm 2 mps 740 mmHg 48%
    04:00 +31°C° 0.5 mm 3 mps 741 mmHg 51%
    05:00 +30°C° 0.5 mm 3 mps 741 mmHg 54%
    06:00 +30°C° 0.5 mm 4 mps 741 mmHg 57%
    07:00 +32°C° 0 mm 4 mps 742 mmHg 56%
    08:00 +33°C° 0 mm 4 mps 742 mmHg 55%
    09:00 +33°C° 0 mm 4 mps 742 mmHg 53%
    10:00 +34°C° 0 mm 4 mps 742 mmHg 50%
    11:00 +35°C° 0 mm 4 mps 742 mmHg 46%
    12:00 +36°C° 0 mm 3 mps 742 mmHg 42%
    13:00 +37°C° 0 mm 3 mps 741 mmHg 40%
    14:00 +38°C° 0 mm 2 mps 740 mmHg 37%
    15:00 +37°C° 0 mm 1 mps 739 mmHg 35%
    16:00 +37°C° 0 mm 1 mps 739 mmHg 34%
    17:00 +37°C° 0 mm 1 mps 739 mmHg 34%
    18:00 +39°C° 0 mm 1 mps 739 mmHg 33%
    19:00 +37°C° 0 mm 1 mps 740 mmHg 35%
    20:00 +38°C° 0 mm 2 mps 740 mmHg 36%
    21:00 +38°C° 0 mm 2 mps 741 mmHg 37%
    22:00 +37°C° 0 mm 3 mps 741 mmHg 41%
    23:00 +36°C° 0 mm 4 mps 741 mmHg 44%

    Tomorrow, 17 July, Tuesday

    Time Temperature Precipitation Wind Pressure Humidity
    00:00 +35°C° 0 mm 5 mps 741 mmHg 47%
    01:00 +34°C° 0 mm 5 mps 741 mmHg 49%
    02:00 +34°C° 0 mm 5 mps 740 mmHg 52%
    03:00 +33°C° 0 mm 6 mps 740 mmHg 54%
    04:00 +33°C° 0 mm 6 mps 740 mmHg 56%
    05:00 +33°C° 0 mm 6 mps 740 mmHg 57%
    06:00 +32°C° 0 mm 6 mps 741 mmHg 58%
    07:00 +33°C° 0 mm 6 mps 741 mmHg 56%
    08:00 +33°C° 0 mm 6 mps 742 mmHg 55%
    09:00 +34°C° 0 mm 6 mps 742 mmHg 53%
    10:00 +35°C° 0 mm 6 mps 742 mmHg 49%
    11:00 +38°C° 0 mm 6 mps 742 mmHg 45%
    12:00 +39°C° 0 mm 6 mps 741 mmHg 41%
    13:00 +40°C° 0 mm 5 mps 740 mmHg 39%
    14:00 +40°C° 0 mm 5 mps 740 mmHg 36%
    15:00 +41°C° 0 mm 4 mps 739 mmHg 34%
    16:00 +41°C° 0 mm 4 mps 739 mmHg 34%
    17:00 +40°C° 0 mm 4 mps 739 mmHg 34%
    18:00 +39°C° 0 mm 3 mps 739 mmHg 34%
    19:00 +40°C° 0 mm 4 mps 739 mmHg 35%
    20:00 +38°C° 0 mm 4 mps 740 mmHg 37%
    21:00 +39°C° 0 mm 5 mps 741 mmHg 38%
    22:00 +36°C° 0 mm 6 mps 741 mmHg 44%
    23:00 +35°C° 0 mm 7 mps 741 mmHg 50%

    Day after tomorrow, 18 July, Wednesday

    Time Temperature Precipitation Wind Pressure Humidity
    00:00 +34°C° 0 mm 9 mps 740 mmHg 56%
    01:00 +33°C° 0.7 mm 8 mps 740 mmHg 58%
    02:00 +32°C° 0.7 mm 7 mps 739 mmHg 61%
    03:00 +32°C° 0.7 mm 7 mps 739 mmHg 64%
    04:00 +30°C° 0.1 mm 7 mps 739 mmHg 64%
    05:00 +30°C° 0.1 mm 7 mps 740 mmHg 64%
    06:00 +31°C° 0.1 mm 8 mps 741 mmHg 65%
    07:00 +32°C° 0 mm 8 mps 741 mmHg 62%
    08:00 +32°C° 0 mm 8 mps 741 mmHg 60%
    09:00 +33°C° 0 mm 8 mps 742 mmHg 58%
    10:00 +34°C° 0 mm 7 mps 742 mmHg 55%
    11:00 +35°C° 0 mm 7 mps 741 mmHg 51%
    12:00 +36°C° 0 mm 7 mps 741 mmHg 48%
    13:00 +38°C° 0 mm 7 mps 740 mmHg 46%
    14:00 +38°C° 0 mm 7 mps 740 mmHg 44%
    15:00 +39°C° 0 mm 6 mps 739 mmHg 42%
    16:00 +38°C° 0 mm 6 mps 739 mmHg 43%
    17:00 +38°C° 0 mm 6 mps 739 mmHg 44%
    18:00 +37°C° 0 mm 5 mps 739 mmHg 44%
    19:00 +36°C° 0 mm 5 mps 740 mmHg 46%
    20:00 +36°C° 0 mm 4 mps 740 mmHg 48%
    21:00 +35°C° 0 mm 4 mps 741 mmHg 50%
    22:00 +35°C° 0.1 mm 5 mps 741 mmHg 52%
    23:00 +34°C° 0.1 mm 5 mps 741 mmHg 54%

    19 July, Thursday

    Time Temperature Precipitation Wind Pressure Humidity
    00:00 +33°C° 0.1 mm 5 mps 741 mmHg 56%
    01:00 +33°C° 0 mm 6 mps 740 mmHg 58%
    02:00 +32°C° 0 mm 6 mps 740 mmHg 60%
    03:00 +32°C° 0 mm 6 mps 740 mmHg 62%
    04:00 +32°C° 0 mm 6 mps 740 mmHg 63%
    05:00 +30°C° 0 mm 6 mps 740 mmHg 64%
    06:00 +30°C° 0 mm 6 mps 740 mmHg 65%
    07:00 +32°C° 0 mm 6 mps 741 mmHg 61%
    08:00 +33°C° 0 mm 7 mps 741 mmHg 57%
    09:00 +34°C° 0 mm 7 mps 742 mmHg 53%
    10:00 +35°C° 0 mm 7 mps 742 mmHg 48%
    11:00 +38°C° 0 mm 6 mps 741 mmHg 43%
    12:00 +39°C° 0 mm 6 mps 741 mmHg 38%
    13:00 +40°C° 0 mm 6 mps 740 mmHg 36%
    14:00 +41°C° 0 mm 5 mps 739 mmHg 34%
    15:00 +41°C° 0 mm 5 mps 738 mmHg 32%
    16:00 +41°C° 0 mm 5 mps 739 mmHg 32%
    17:00 +41°C° 0 mm 4 mps 739 mmHg 32%
    18:00 +40°C° 0 mm 4 mps 739 mmHg 33%
    19:00 +40°C° 0 mm 4 mps 739 mmHg 35%
    20:00 +39°C° 0 mm 5 mps 740 mmHg 37%
    21:00 +39°C° 0 mm 5 mps 740 mmHg 38%
    22:00 +38°C° 0 mm 6 mps 740 mmHg 41%
    23:00 +36°C° 0 mm 6 mps 739 mmHg 44%

    20 July, Friday

    Time Temperature Precipitation Wind Pressure Humidity
    00:00 +35°C° 0 mm 6 mps 739 mmHg 47%
    01:00 +35°C° 0 mm 6 mps 739 mmHg 49%
    02:00 +34°C° 0 mm 7 mps 739 mmHg 51%
    03:00 +34°C° 0 mm 7 mps 739 mmHg 53%
    04:00 +33°C° 0 mm 7 mps 739 mmHg 56%
    05:00 +32°C° 0 mm 7 mps 740 mmHg 58%
    06:00 +32°C° 0 mm 7 mps 740 mmHg 60%
    07:00 +32°C° 0.6 mm 7 mps 740 mmHg 59%
    08:00 +33°C° 0.6 mm 7 mps 741 mmHg 58%
    09:00 +33°C° 0.6 mm 7 mps 741 mmHg 57%
    10:00 +35°C° 0.1 mm 7 mps 741 mmHg 52%
    11:00 +36°C° 0.1 mm 7 mps 740 mmHg 47%
    12:00 +39°C° 0.1 mm 7 mps 740 mmHg 41%
    13:00 +40°C° 0 mm 6 mps 739 mmHg 39%
    14:00 +40°C° 0 mm 6 mps 738 mmHg 37%
    15:00 +41°C° 0 mm 5 mps 738 mmHg 34%
    16:00 +41°C° 0 mm 4 mps 738 mmHg 35%
    17:00 +41°C° 0 mm 4 mps 738 mmHg 35%
    18:00 +39°C° 0 mm 3 mps 738 mmHg 36%
    19:00 +38°C° 3.7 mm 4 mps 738 mmHg 43%
    20:00 +36°C° 3.7 mm 4 mps 739 mmHg 51%
    21:00 +34°C° 3.7 mm 4 mps 739 mmHg 58%
    22:00 +33°C° 8.2 mm 7 mps 739 mmHg 63%
    23:00 +32°C° 8.2 mm 9 mps 739 mmHg 69%

    21 July, Saturday

    Time Temperature Precipitation Wind Pressure Humidity
    00:00 +31°C° 8.2 mm 11 mps 739 mmHg 74%
    01:00 +31°C° 2.2 mm 9 mps 739 mmHg 72%
    02:00 +29°C° 2.2 mm 7 mps 739 mmHg 71%
    03:00 +29°C° 2.2 mm 5 mps 739 mmHg 69%
    04:00 +29°C° 0.1 mm 6 mps 740 mmHg 69%
    05:00 +29°C° 0.1 mm 7 mps 740 mmHg 69%
    06:00 +29°C° 0.1 mm 7 mps 740 mmHg 68%
    07:00 +30°C° 0 mm 7 mps 741 mmHg 66%
    08:00 +30°C° 0 mm 7 mps 741 mmHg 64%
    09:00 +32°C° 0 mm 7 mps 741 mmHg 61%
    10:00 +33°C° 0 mm 7 mps 741 mmHg 57%
    11:00 +34°C° 0 mm 7 mps 741 mmHg 52%
    12:00 +36°C° 0 mm 7 mps 741 mmHg 47%
    13:00 +36°C° 0 mm 6 mps 740 mmHg 45%
    14:00 +38°C° 0 mm 6 mps 740 mmHg 43%
    15:00 +39°C° 0 mm 6 mps 739 mmHg 40%
    16:00 +37°C° 0 mm 5 mps 739 mmHg 42%
    17:00 +37°C° 0 mm 5 mps 739 mmHg 43%
    18:00 +36°C° 0 mm 4 mps 740 mmHg 45%
    19:00 +36°C° 0 mm 5 mps 740 mmHg 48%
    20:00 +35°C° 0 mm 5 mps 740 mmHg 51%
    21:00 +34°C° 0 mm 5 mps 741 mmHg 54%
    22:00 +33°C° 0.1 mm 5 mps 741 mmHg 57%
    23:00 +33°C° 0.1 mm 6 mps 741 mmHg 60%
    Show more